ONEWEB-0021 (45134 NORAD) Tracking and Keplerian Element Data

This shows tracking and keplerian element data for the satellite.

Feedback or suggestion? Click here.




ElementValue
Catalog45134
NameONEWEB-0021
Epoch Orbit2380
Epoch Day189.91668981
Epoch Year2020
RAAN115.4487
Inclination87.5635
Eccentricity0.0021722
Argument of Perigee91.4386
Mean Anonmoly269.0196
Mean Motion14.97627459
Decay Rate-0.00056692
L11 45134U 20008D 20189.91668981 -.00056692 00000-0 -48738-2 0 9997
L22 45134 87.5635 115.4487 0021722 91.4386 269.0196 14.97627459 23808

Live tracking and technical data element details for ONEWEB-0021 (NORAD 45134). ONEWEB-0021 can be tracked NOW for your location showing map with azimuth and elevation plus other details from your city location.

Track the satellite on the map from your city or location and see movement details for azimuth, elevation, latitude, longitude, range, height, and movement on the map or in text.







IsCatalogInMostPopularTable: catalog: 45134, numindb: 31
Update: records affected: 1



GetName: 45134 ONEWEB-0021

Hit Count: updated at: Fri, 10 Jul 2020 03:54:18 GMT